MUOS-2

Last updated on Sat Oct 25 2025 00:02:50 GMT+0000 (Coordinated Universal Time)

1 39206U 13036A 25297.75615159 .00000056 00000+0 00000+0 0 9996 2 39206 4.5293 44.8676 0052658 177.0319 264.7349 1.00213288 44833
UTC large
Height (km)
Speed (km/s)
/
Latitude / Longitude
Inclination (degrees)
Orbital Period (minutes)
Azimuth
Elevation
Range (km)
Doppler Factor

Next 0 passes for location: London (51.5072 / 0.1276)

Sorry there are no passes over London.